Regional Weather Roundup
Issued by NWS

Home | Current Version | Previous Version | Graphics & Text | Print | Product List | Glossary On
Versions: 1 2 3 4 5 6 7 8 9 10 11 12 13 14 15 16 17 18 19 20 21 22 23 24 25 26 27 28 29 30 31 32 33 34 35 36 37 38 39 40 41 42 43 44 45 46 47 48 49 50
000
ASUS43 KTOP 241808
RWRKS

WEATHER ROUNDUP FOR KANSAS
NATIONAL WEATHER SERVICE GOODLAND KS
100 PM CDT THU JUL 24 2014

NOTE:  "FAIR" INDICATES FEW OR NO CLOUDS BELOW 12,000 FEET WITH NO
SIGNIFICANT WEATHER AND/OR OBSTRUCTIONS TO VISIBILITY.

KSZ001>006-013>018-027>032-041>047-241900-
NORTHWEST KANSAS

CITY           SKY/WX    TMP DP  RH WIND       PRES   REMARKS
GOODLAND       SUNNY     97  47  18 SW18G30   30.02F
6HR MIN TEMP:  68; 6HR MAX TEMP:  97;

HAYS           SUNNY     64  64 100 S20G25    30.02F
RUSSELL        SUNNY     88  69  53 S24G30    30.01F
6HR MIN TEMP:  66; 6HR MAX TEMP:  91;

$$

KSZ061>065-074>080-084>089-241900-
SOUTHWEST KANSAS

CITY           SKY/WX    TMP DP  RH WIND       PRES   REMARKS
DODGE CITY     SUNNY     90  67  46 S12       30.07F
6HR MIN TEMP:  68; 6HR MAX TEMP:  90;

ELKHART          N/A     94  57  28 SW8         N/A
GARDEN CITY    SUNNY     93  62  35 S12       30.04F
6HR MIN TEMP:  68; 6HR MAX TEMP:  93;

GREAT BEND     SUNNY     88  70  55 SE22      30.03F
LIBERAL        SUNNY     97  61  30 SW14G20   30.08F HX  97
PRATT          SUNNY     86  68  54 S16       30.09F
$$

KSZ066>073-081>083-090>101-241900-
SOUTHEAST KANSAS

CITY           SKY/WX    TMP DP  RH WIND       PRES   REMARKS
CHANUTE        MOSUNNY   82  66  58 SE9G16    30.11F
6HR MIN TEMP:  68; 6HR MAX TEMP:  82;

COFFEYVILLE    MOSUNNY   84  70  62 SE12      30.09F
6HR MIN TEMP:  68; 6HR MAX TEMP:  84;

HUTCHINSON     SUNNY     88  67  49 SE16G23   30.07F
6HR MIN TEMP:  68; 6HR MAX TEMP:  89;

MEDICINE LODGE   N/A     87  71  58 SE12G18   30.06F
NEWTON         SUNNY     86  64  48 SE13G21   30.12F
PARSONS        PTSUNNY   82  67  60 VRB7      30.11F
6HR MIN TEMP:  68; 6HR MAX TEMP:  84;

WICHITA INTL   SUNNY     86  68  54 SE14      30.07F
6HR MIN TEMP:  70; 6HR MAX TEMP:  86;

WICHITA JABRA  SUNNY     86  70  58 SE14      30.08F
6HR MIN TEMP:  64; 6HR MAX TEMP:  87;

WICHITA MCCONL SUNNY     85  67  55 SE15G21   30.08F
WINFIELD       SUNNY     86  69  56 E12       30.09F
6HR MIN TEMP:  67; 6HR MAX TEMP:  86;

$$

KSZ007>012-019>026-033>040-048>060-102>105-241900-
NORTHEAST KANSAS

CITY           SKY/WX    TMP DP  RH WIND       PRES   REMARKS
CONCORDIA      SUNNY     84  67  56 S18G25    30.05F
6HR MIN TEMP:  65; 6HR MAX TEMP:  84;

EMPORIA        SUNNY     82  64  54 SE15      30.09F
6HR MIN TEMP:  64; 6HR MAX TEMP:  82;

LAWRENCE       SUNNY     84  60  44 SE12      30.12F
6HR MIN TEMP:  65; 6HR MAX TEMP:  84;

MANHATTAN      SUNNY     87  64  46 SE13      30.07F
6HR MIN TEMP:  67; 6HR MAX TEMP:  88;

MARYSVILLE     SUNNY     84  63  48 SE15G21   30.09F
OLATHE IND     SUNNY     80  58  46 SE10G17   30.14F
6HR MIN TEMP:  65; 6HR MAX TEMP:  81;

OLATHE EXE     SUNNY     78  59  51 E12       30.13F
6HR MIN TEMP:  65; 6HR MAX TEMP:  79;

SALINA         SUNNY     90  65  43 SE15G25   30.05F
6HR MIN TEMP:  69; 6HR MAX TEMP:  90;

TOPEKA BILLARD SUNNY     84  62  47 E12       30.11F
6HR MIN TEMP:  67; 6HR MAX TEMP:  85;

TOPEKA FORBES  SUNNY     83  61  47 E10G20    30.11F
6HR MIN TEMP:  65; 6HR MAX TEMP:  84;

$$


USA.gov is the U.S. government's official web portal to all federal, state and local government web resources and services.